THORAD AGENA D DEB

Satellite information

Favourite Embed

Satellite Type and Status

DEBRISIN ORBIT

Key statistics

Satellite THORAD AGENA D DEB at a glance.

Uptime

20283

Days in orbit

Revolutions

≈ 14.1

Per day

Orbit

SSO

Sun Synchronous Orbit

Inclination

100.4

Latest

Satellite identification and parameters

Extended collection of information and parameters for THORAD AGENA D DEB.

Object identification

Identified? True

Debris? True

Object name: THORAD AGENA D DEB

International designator: 1970-025QF

Object number (NORAD): 20360

Object ID (CCSDS): 20360

Country: UNITED STATES OF AMERICA (US)

Current information (Y/N): Y

RCS size: SMALL

Orbital parameters

Period: 101.989 minutes

Inclination: 100.4446 deg

SMA: 7230.966 km

Apoapsis: 865.08 km

Periapsis: 840.582 km

RAAN: 202.4013 deg

Eccentricy: 0.00169399

Argument of periapsis: 149.59 deg

Mean anomaly: 31.0977 deg

Mean motion: 14.11914106 rev/day

Mean motion (dot): 0.00012889 rev/day2

B* drag term: 0.0070612128 1/REarth

Two-line elements (TLE)

Creation date: Oct. 18, 2025, 2:17 a.m.

Reference frame: TEME

Reference center: EARTH

Epoch: Oct. 17, 2025, 12:43 p.m. UTC

TLE line 0: 0 THORAD AGENA D DEB

TLE line 1: 1 20360U 70025QF 25290.53023625 .00012889 00000-0 70612-2 0 9995

TLE line 2: 2 20360 100.4446 202.4013 0016940 149.5900 31.0977 14.11914106798168

Live tracking on map

Real-time ground track for satellite THORAD AGENA D DEB.

In-orbit conjunctions

A list of the most updated potential collisions computed for object THORAD AGENA D DEB.

Target Orbit TCA Probability of collision Miss distance Type
SJ-5 SSO 2025-03-12 15:08:00 0.0005043222 135.0 (m) PAYLOAD
FENGYUN 1C DEB SSO 2024-07-10 10:12:01 0.0001474544 163.0 (m) DEBRIS
SL-3 DEB LEO 2024-06-08 07:51:50 0.0001521971 104.0 (m) DEBRIS

Associated space launch

Meteorological research and development satellite

THORAD AGENA D DEB was lifted into orbit during the mission ‘Thorad SLV-2G Agena D | Nimbus 4’, on board a Thorad SLV-2G Agena D space rocket.

The launch took place on April 8, 1970, 8:17 a.m. from Space Launch Complex 2E.

For more information about the launch, click the button.

Launch to space Thorad SLV-2G Agena D | Nimbus 4
Thorad SLV-2G Agena D | Nimbus 4

Agency: N/A

Status: Launch Successful

Launch date: April 8, 1970, 8:17 a.m. UTC

Rocket: Thorad SLV-2G Agena D

Launch pad: Space Launch Complex 2E

Location: Vandenberg SFB, CA, USA

...

Latest news about this satellite

There are no fresh news available about this satellite. Check back as we update our databases every day.


Newsletter sign-up

Weekly statistics, charts and insights to help you stay on top of the space industry.